This is the latest recevied weather packets stored in our database for station/object OH2HCY. If no packets are shown the sender has not sent any weather packets the latest 10 day(s).
| Time | Temp. | Humidity | Pressure | Rain* | Wind** | Luminosity | Snow |
|---|---|---|---|---|---|---|---|
| 1777988440 | 11.11° C | 34% | 1001.1 hPa | - | - | - | - |
| 1777987920 | 10.56° C | 37% | 1001.1 hPa | - | - | - | - |
| 1777987380 | 10.56° C | 37% | 1001.2 hPa | - | - | - | - |
| 1777986850 | 10.56° C | 39% | 1001.2 hPa | - | - | - | - |
| 1777986312 | 10.56° C | 39% | 1001.2 hPa | - | - | - | - |
| 1777985784 | 10° C | 40% | 1001.5 hPa | - | - | - | - |
| 1777985235 | 10° C | 42% | 1001.4 hPa | - | - | - | - |
| 1777984680 | 10.56° C | 42% | 1001.2 hPa | - | - | - | - |
| 1777984180 | 10° C | 42% | 1001.2 hPa | - | - | - | - |
| 1777983610 | 10° C | 44% | 1001.3 hPa | - | - | - | - |
| 1777983043 | 10° C | 45% | 1001.4 hPa | - | - | - | - |
| 1777982484 | 10° C | 47% | 1001 hPa | - | - | - | - |
| 1777981970 | 10.56° C | 44% | 1000.6 hPa | - | - | - | - |
| 1777981440 | 10.56° C | 40% | 1000.4 hPa | - | - | - | - |
| 1777980895 | 10.56° C | 43% | 1000.4 hPa | - | - | - | - |
| 1777980360 | 10.56° C | 43% | 1000.2 hPa | - | - | - | - |
| 1777979850 | 11.11° C | 41% | 1000.1 hPa | - | - | - | - |
| 1777979334 | 11.11° C | 41% | 999.9 hPa | - | - | - | - |
| 1777978805 | 11.11° C | 40% | 999.8 hPa | - | - | - | - |
| 1777978310 | 11.67° C | 40% | 999.5 hPa | - | - | - | - |
| 1777977795 | 11.11° C | 43% | 999.4 hPa | - | - | - | - |
| 1777977253 | 11.11° C | 43% | 999.4 hPa | - | - | - | - |
| 1777976690 | 11.11° C | 44% | 999.1 hPa | - | - | - | - |
| 1777976185 | 11.67° C | 44% | 999 hPa | - | - | - | - |
| 1777975675 | 11.11° C | 45% | 998.9 hPa | - | - | - | - |
* Rain since midnight (hover to see other rain measurements)
** Current wind speed in m/s (hover to see current wind gust speed)